Location: Beugnon
(47.6222°N, 3.7850°E)
Time: 13:01:02
(UTC+00:00)

Cosmos 540 Rocket - Pass Details

Date: 09 April 2020
Orbit: 741 x 753 km, 74.1° (Epoch: 28 May)

Event Time Altitude Azimuth Distance (km) Brightness Sun altitude
Rises 21:26:50 0° 336° (NNW) 3,213 7.9 -26.4°
Reaches altitude 10° 21:29:13 10° 334° (NNW) 2,282 6.9 -26.7°
Enters shadow 21:34:16 73° 261° (W) 786 3.5 -27.2°
